KB6CYS Weather Reports


Display with metric or nautical units.
time (UTC)temp
F
wind
direction
speed
MPH
gust
MPH
rain 1hr
in
rain 24hr
in
rain mn
in
humidity
%
barometer
mb
20260507145002 59 8 1.0 5.0 0.00 0.00 0.00 1015.6
20260507144504 59 287 3.0 5.0 0.00 0.00 0.00 1016.0
20260507144004 59 351 1.0 5.0 0.00 0.00 0.00 1015.3
20260507143504 58 295 3.0 5.0 0.00 0.00 0.00 1014.9
20260507143023 58 299 3.0 5.0 0.00 0.00 0.00 1014.9
20260507142503 58 235 1.0 3.0 0.00 0.00 0.00 1015.6
20260507142003 58 265 0.0 2.0 0.00 0.00 0.00 1015.3
20260507141504 58 323 0.0 4.0 0.00 0.00 0.00 1015.6
20260507141002 57 278 2.0 4.0 0.00 0.00 0.00 1014.9
20260507140525 57 282 1.0 3.0 0.00 0.00 0.00 1015.3
20260507140002 57 230 1.0 2.0 0.00 0.00 0.00 1014.6
20260507135504 57 245 0.0 2.0 0.00 0.00 0.00 1015.3
20260507135003 56 190 2.0 2.0 0.00 0.00 0.00 1014.9
20260507134503 56 180 1.0 2.0 0.00 0.00 0.00 1014.9
20260507134025 56 180 1.0 1.0 0.00 0.00 0.00 1014.9
20260507133502 56 180 1.0 1.0 0.00 0.00 0.00 1014.9
20260507133003 56 180 0.0 1.0 0.00 0.00 0.00 1015.3
20260507132504 56 180 0.0 1.0 0.00 0.00 0.00 1014.9
20260507132004 56 180 1.0 1.0 0.00 0.00 0.00 1014.6
20260507131502 56 180 0.0 2.0 0.00 0.00 0.00 1014.9
20260507131003 56 180 1.0 2.0 0.00 0.00 0.00 1015.3
20260507130524 56 180 0.0 1.0 0.00 0.00 0.00 1015.6
20260507130003 56 180 0.0 1.0 0.00 0.00 0.00 1015.3
20260507125502 56 180 1.0 1.0 0.00 0.00 0.00 1014.3
20260507125003 56 203 0.0 2.0 0.00 0.00 0.00 1015.3
20260507124502 56 202 1.0 2.0 0.00 0.00 0.00 1015.3
20260507124003 56 202 1.0 2.0 0.00 0.00 0.00 1014.6
20260507123502 56 202 0.0 1.0 0.00 0.00 0.00 1014.6
20260507123002 56 225 0.0 0.0 0.00 0.00 0.00 1014.9
20260507122503 56 225 0.0 1.0 0.00 0.00 0.00 1014.6
20260507122004 56 225 0.0 1.0 0.00 0.00 0.00 1014.9
20260507121504 56 224 1.0 1.0 0.00 0.00 0.00 1014.9
20260507121003 57 202 1.0 1.0 0.00 0.00 0.00 1014.9
20260507120503 57 269 0.0 0.0 0.00 0.00 0.00 1014.9
20260507120002 56 270 0.0 0.0 0.00 0.00 0.00 1014.9
20260507115503 56 23 0.0 0.0 0.00 0.00 0.00 1014.9
20260507115003 57 90 0.0 0.0 0.00 0.00 0.00 1014.6
20260507114503 57 270 0.0 1.0 0.00 0.00 0.00 1014.6
20260507114003 57 202 0.0 1.0 0.00 0.00 0.00 1014.9
20260507113503 57 225 0.0 0.0 0.00 0.00 0.00 1014.6
20260507113003 57 293 0.0 0.0 0.00 0.00 0.00 1015.3
20260507112504 57 270 0.0 0.0 0.00 0.00 0.00 1015.3
20260507112003 57 270 0.0 0.0 0.00 0.00 0.00 1015.3
20260507111503 57 293 0.0 1.0 0.00 0.00 0.00 1015.6
20260507111004 57 235 1.0 1.0 0.00 0.00 0.00 1015.3
20260507110503 57 248 0.0 0.0 0.00 0.00 0.00 1015.6
20260507110005 57 248 0.0 0.0 0.00 0.00 0.00 1015.3
20260507105503 57 248 0.0 1.0 0.00 0.00 0.00 1015.6
20260507105003 58 270 0.0 1.0 0.00 0.00 0.00 1016.0
20260507104502 58 360 0.0 1.0 0.00 0.00 0.00 1016.0
20260507104003 58 360 0.0 0.0 0.00 0.00 0.00 1015.6
20260507103503 58 360 0.0 0.0 0.00 0.00 0.00 1015.6
20260507103003 58 360 0.0 0.0 0.00 0.00 0.00 1015.6
20260507102503 58 360 0.0 1.0 0.00 0.00 0.00 1015.3
20260507102025 58 360 0.0 2.0 0.00 0.00 0.00 1015.3
20260507101502 58 360 1.0 2.0 0.00 0.00 0.00 1015.6
20260507101003 58 360 0.0 0.0 0.00 0.00 0.00 1016.0
20260507100503 58 360 0.0 1.0 0.00 0.00 0.00 1016.0
20260507100004 58 360 0.0 1.0 0.00 0.00 0.00 1015.6
20260507095504 58 360 1.0 1.0 0.00 0.00 0.00 1015.6
20260507095024 58 360 0.0 1.0 0.00 0.00 0.00 1016.0
20260507094524 58 360 0.0 0.0 0.00 0.00 0.00 1015.6
20260507094004 58 360 0.0 0.0 0.00 0.00 0.00 1015.6
20260507093502 58 360 0.0 0.0 0.00 0.00 0.00 1015.3
20260507093004 58 360 0.0 0.0 0.00 0.00 0.00 1015.3
20260507092503 58 360 0.0 1.0 0.00 0.00 0.00 1015.3
20260507092003 58 360 0.0 1.0 0.00 0.00 0.00 1015.6
20260507091524 58 360 1.0 1.0 0.00 0.00 0.00 1015.3
20260507091003 59 360 0.0 1.0 0.00 0.00 0.00 1015.6
20260507090525 59 360 0.0 2.0 0.00 0.00 0.00 1015.6
20260507090004 58 360 1.0 2.0 0.00 0.00 0.00 1015.6
20260507085503 59 360 1.0 2.0 0.00 0.00 0.00 1016.0
20260507085002 59 360 0.0 2.0 0.00 0.00 0.00 1016.3
20260507084503 59 360 0.0 2.0 0.00 0.00 0.00 1015.6
20260507084003 59 314 1.0 2.0 0.00 0.00 0.00 1016.3
20260507083502 59 253 0.0 2.0 0.00 0.00 0.00 1016.0
20260507083003 59 285 1.0 3.0 0.00 0.00 0.00 1016.0
20260507082502 59 280 2.0 3.0 0.00 0.00 0.00 1016.3
20260507082003 59 345 2.0 2.0 0.00 0.00 0.00 1016.3
20260507081502 59 335 1.0 2.0 0.00 0.00 0.00 1016.3
20260507081003 59 279 1.0 3.0 0.00 0.00 0.00 1016.3
20260507080524 59 294 1.0 3.0 0.00 0.00 0.00 1016.6
20260507080004 59 274 2.0 3.0 0.00 0.00 0.00 1017.0
20260507075524 59 287 2.0 3.0 0.00 0.00 0.00 1016.6
20260507075003 59 287 2.0 3.0 0.00 0.00 0.00 1016.3
20260507074503 59 295 1.0 4.0 0.00 0.00 0.00 1016.3
20260507074004 59 281 2.0 5.0 0.00 0.00 0.00 1016.6
20260507073525 59 287 2.0 5.0 0.00 0.00 0.00 1016.6
20260507073003 59 285 2.0 3.0 0.00 0.00 0.00 1016.3
20260507072503 59 287 2.0 5.0 0.00 0.00 0.00 1016.6
20260507072002 59 321 2.0 5.0 0.00 0.00 0.00 1016.6
20260507071503 59 282 3.0 5.0 0.00 0.00 0.00 1017.0
20260507071004 60 247 2.0 4.0 0.00 0.00 0.00 1017.0
20260507070503 60 254 2.0 3.0 0.00 0.00 0.00 1017.0
20260507070008 60 285 2.0 3.0 0.00 0.00 0.00 1016.3
20260507065503 60 275 0.0 4.0 0.00 0.00 0.00 1017.0
20260507065002 59 288 2.0 5.0 0.00 0.00 0.00 1016.6
20260507064503 60 310 1.0 5.0 0.00 0.00 0.00 1016.6
20260507064002 60 271 3.0 4.0 0.00 0.00 0.00 1016.6
20260507063524 60 281 2.0 6.0 0.00 0.00 0.00 1016.6
20260507063003 60 277 4.0 6.0 0.00 0.00 0.00 1016.6
20260507062503 60 282 2.0 6.0 0.00 0.00 0.00 1016.6
20260507062002 60 285 3.0 7.0 0.00 0.00 0.00 1016.6
20260507061503 60 288 4.0 7.0 0.00 0.00 0.00 1017.0
20260507061004 60 294 3.0 5.0 0.00 0.00 0.00 1016.6
20260507060503 60 272 2.0 5.0 0.00 0.00 0.00 1017.0
20260507060003 60 303 2.0 3.0 0.00 0.00 0.00 1016.6
20260507055503 60 299 2.0 5.0 0.00 0.00 0.00 1017.0
20260507055004 61 282 3.0 5.0 0.00 0.00 0.00 1017.0
20260507054503 61 285 2.0 4.0 0.00 0.00 0.00 1017.0
20260507054003 61 297 2.0 6.0 0.00 0.00 0.00 1017.3
20260507053504 61 276 3.0 6.0 0.00 0.00 0.00 1017.3
20260507053004 61 279 3.0 4.0 0.00 0.00 0.00 1017.0
20260507052525 61 280 2.0 5.0 0.00 0.00 0.00 1017.0
20260507052004 61 282 3.0 5.0 0.00 0.00 0.00 1016.6
20260507051503 61 285 3.0 7.0 0.00 0.00 0.00 1017.0
20260507051002 61 298 3.0 7.0 0.00 0.00 0.00 1016.6
20260507050502 61 285 3.0 9.0 0.00 0.00 0.00 1017.0
20260507050001 61 278 3.0 9.0 0.00 0.00 0.00 1017.0
20260507045504 61 282 5.0 9.0 0.00 0.00 0.00 1017.0
20260507045002 61 290 3.0 7.0 0.00 0.00 0.00 1016.6
20260507044502 61 275 4.0 6.0 0.00 0.00 0.00 1017.0
20260507044003 62 286 3.0 6.0 0.00 0.00 0.00 1016.3
20260507043502 62 275 4.0 7.0 0.00 0.00 0.00 1016.6
20260507043002 61 279 4.0 9.0 0.00 0.00 0.00 1016.3
20260507042502 61 288 4.0 9.0 0.00 0.00 0.00 1016.6
20260507042003 61 285 5.0 10.0 0.00 0.00 0.00 1016.3
20260507041502 62 281 5.0 10.0 0.00 0.00 0.00 1016.6
20260507041003 62 297 6.0 9.0 0.00 0.00 0.00 1016.0
20260507040523 62 305 4.0 8.0 0.00 0.00 0.00 1016.3
20260507040003 62 289 5.0 9.0 0.00 0.00 0.00 1016.0
20260507035503 62 289 5.0 9.0 0.00 0.00 0.00 1016.3
20260507035002 63 279 4.0 10.0 0.00 0.00 0.00 1016.0
20260507034502 63 289 4.0 11.0 0.00 0.00 0.00 1016.3
20260507034003 63 288 5.0 11.0 0.00 0.00 0.00 1016.3
20260507033503 63 285 5.0 9.0 0.00 0.00 0.00 1016.3
20260507033024 63 272 4.0 8.0 0.00 0.00 0.00 1016.0
20260507032502 64 282 3.0 7.0 0.00 0.00 0.00 1016.3
20260507032002 64 260 3.0 7.0 0.00 0.00 0.00 1016.3
20260507031501 64 280 3.0 9.0 0.00 0.00 0.00 1016.3
20260507031002 64 281 5.0 9.0 0.00 0.00 0.00 1016.3
20260507030502 64 282 6.0 9.0 0.00 0.00 0.00 1016.3
20260507030023 64 276 5.0 10.0 0.00 0.00 0.00 1016.3
20260507025503 64 279 6.0 10.0 0.00 0.00 0.00 1016.3
20260507025002 65 281 5.0 9.0 0.00 0.00 0.00 1016.6
20260507024504 65 267 5.0 10.0 0.00 0.00 0.00 1016.0
20260507024001 65 267 6.0 10.0 0.00 0.00 0.00 1016.3
20260507023502 65 283 6.0 12.0 0.00 0.00 0.00 1015.6
20260507023023 65 254 5.0 12.0 0.00 0.00 0.00 1015.3
20260507022503 66 257 6.0 11.0 0.00 0.00 0.00 1016.0
20260507022001 66 267 6.0 11.0 0.00 0.00 0.00 1015.3
20260507021503 66 276 6.0 10.0 0.00 0.00 0.00 1015.6
20260507021002 67 276 7.0 10.0 0.00 0.00 0.00 1015.3
20260507020501 67 287 4.0 10.0 0.00 0.00 0.00 1015.3
20260507020002 68 276 6.0 11.0 0.00 0.00 0.00 1014.6
20260507015502 68 264 7.0 11.0 0.00 0.00 0.00 1015.3
20260507015002 68 276 6.0 14.0 0.00 0.00 0.00 1015.3
20260507014502 68 258 5.0 14.0 0.00 0.00 0.00 1015.3
20260507014023 69 279 7.0 14.0 0.00 0.00 0.00 1015.6
20260507013501 69 293 5.0 12.0 0.00 0.00 0.00 1014.9
20260507013004 69 282 7.0 12.0 0.00 0.00 0.00 1015.6
20260507012501 69 291 7.0 12.0 0.00 0.00 0.00 1015.3
20260507012002 69 276 7.0 14.0 0.00 0.00 0.00 1015.6
20260507011502 70 278 7.0 14.0 0.00 0.00 0.00 1015.3
20260507011004 70 273 6.0 13.0 0.00 0.00 0.00 1015.3
20260507010503 70 260 8.0 13.0 0.00 0.00 0.00 1014.9
20260507010002 71 273 7.0 13.0 0.00 0.00 0.00 1015.3
20260507005524 71 272 8.0 13.0 0.00 0.00 0.00 1014.9
20260507005002 72 258 8.0 12.0 0.00 0.00 0.00 1014.9
20260507004502 72 247 8.0 14.0 0.00 0.00 0.00 1015.3
20260507004002 72 274 7.0 14.0 0.00 0.00 0.00 1014.9
20260507003502 72 291 5.0 10.0 0.00 0.00 0.00 1014.9
20260507003001 72 273 6.0 14.0 0.00 0.00 0.00 1014.3
20260507002502 72 260 7.0 14.0 0.00 0.00 0.00 1014.3
20260507002002 72 279 6.0 13.0 0.00 0.00 0.00 1014.3
20260507001502 72 278 7.0 13.0 0.00 0.00 0.00 1014.3
20260507001003 72 262 7.0 13.0 0.00 0.00 0.00 1013.9
20260507000524 73 261 6.0 12.0 0.00 0.00 0.00 1013.6
20260507000002 74 251 8.0 12.0 0.00 0.00 0.00 1013.9
20260506235501 74 258 6.0 12.0 0.00 0.00 0.00 1014.3
20260506235003 75 212 8.0 12.0 0.00 0.00 0.00 1014.3
20260506234524 75 222 6.0 15.0 0.00 0.00 0.00 1014.3
20260506234024 74 252 7.0 15.0 0.00 0.00 0.00 1013.9
20260506233502 75 213 5.0 10.0 0.00 0.00 0.00 1013.6
20260506233002 75 218 6.0 15.0 0.00 0.00 0.00 1013.2
20260506232502 75 208 7.0 15.0 0.00 0.00 0.00 1014.3
20260506232003 75 214 7.0 13.0 0.00 0.00 0.00 1013.9
20260506231502 75 210 7.0 14.0 0.00 0.00 0.00 1013.9
20260506231001 74 226 9.0 14.0 0.00 0.00 0.00 1013.9
20260506230502 75 204 7.0 15.0 0.00 0.00 0.00 1013.9
20260506230002 75 215 8.0 15.0 0.00 0.00 0.00 1014.6
20260506225523 75 184 7.0 14.0 0.00 0.00 0.00 1013.9
20260506225003 75 196 6.0 14.0 0.00 0.00 0.00 1013.9
20260506224501 74 184 7.0 14.0 0.00 0.00 0.00 1013.6
20260506224002 75 209 9.0 13.0 0.00 0.00 0.00 1014.3
20260506223502 74 203 7.0 14.0 0.00 0.00 0.00 1014.9
20260506223001 74 222 8.0 14.0 0.00 0.00 0.00 1014.3
20260506222524 74 225 7.0 12.0 0.00 0.00 0.00 1014.3
20260506222003 73 235 5.0 13.0 0.00 0.00 0.00 1014.9
20260506221504 73 235 6.0 13.0 0.00 0.00 0.00 1015.6
20260506221002 74 225 6.0 15.0 0.00 0.00 0.00 1015.6
20260506220503 73 190 6.0 17.0 0.00 0.00 0.00 1015.3
20260506220003 73 226 8.0 17.0 0.00 0.00 0.00 1014.9
20260506215503 72 217 7.0 15.0 0.00 0.00 0.00 1015.3
20260506215002 72 233 7.0 14.0 0.00 0.00 0.00 1015.6
20260506214501 72 234 11.0 14.0 0.00 0.00 0.00 1015.6
20260506214002 73 231 8.0 14.0 0.00 0.00 0.00 1015.3
20260506213502 73 210 6.0 14.0 0.00 0.00 0.00 1015.3
20260506213001 73 233 7.0 14.0 0.00 0.00 0.00 1015.3
20260506212524 73 218 6.0 12.0 0.00 0.00 0.00 1015.6
20260506212023 72 232 8.0 13.0 0.00 0.00 0.00 1015.6
20260506211502 73 221 6.0 14.0 0.00 0.00 0.00 1015.6
20260506211002 72 235 8.0 14.0 0.00 0.00 0.00 1016.0
20260506210523 74 210 7.0 12.0 0.00 0.00 0.00 1015.3
20260506210001 73 210 6.0 12.0 0.00 0.00 0.00 1015.3
20260506205503 72 192 5.0 12.0 0.00 0.00 0.00 1015.3
20260506205003 73 222 5.0 11.0 0.00 0.00 0.00 1015.3
20260506204503 72 218 5.0 11.0 0.00 0.00 0.00 1015.6
20260506204024 72 227 5.0 11.0 0.00 0.00 0.00 1016.0
20260506203502 73 176 5.0 12.0 0.00 0.00 0.00 1016.0
20260506203002 72 197 7.0 12.0 0.00 0.00 0.00 1016.3
20260506202502 71 253 5.0 11.0 0.00 0.00 0.00 1016.6
20260506202002 72 213 5.0 12.0 0.00 0.00 0.00 1016.6
20260506201523 73 222 8.0 16.0 0.00 0.00 0.00 1016.3
20260506201023 73 183 6.0 16.0 0.00 0.00 0.00 1016.0
20260506200523 72 225 7.0 14.0 0.00 0.00 0.00 1016.0
20260506200003 73 190 6.0 11.0 0.00 0.00 0.00 1016.0
20260506195503 73 138 4.0 11.0 0.00 0.00 0.00 1016.0
20260506195002 72 201 6.0 12.0 0.00 0.00 0.00 1016.3
20260506194502 71 205 7.0 12.0 0.00 0.00 0.00 1016.0
20260506194003 71 225 6.0 12.0 0.00 0.00 0.00 1016.0
20260506193501 70 215 6.0 13.0 0.00 0.00 0.00 1016.3
20260506193002 70 142 4.0 13.0 0.00 0.00 0.00 1016.3
20260506192501 70 222 6.0 10.0 0.00 0.00 0.00 1016.6
20260506192003 71 227 4.0 10.0 0.00 0.00 0.00 1016.3
20260506191501 71 222 5.0 10.0 0.00 0.00 0.00 1016.6
20260506191023 71 167 5.0 10.0 0.00 0.00 0.00 1016.6
20260506190502 70 228 6.0 11.0 0.00 0.00 0.00 1016.6
20260506190023 70 206 5.0 11.0 0.00 0.00 0.00 1017.6
20260506185523 70 218 6.0 12.0 0.00 0.00 0.00 1017.0
20260506185002 72 225 8.0 12.0 0.00 0.00 0.00 1017.0
20260506184502 72 180 4.0 11.0 0.00 0.00 0.00 1017.3
20260506184002 71 196 4.0 10.0 0.00 0.00 0.00 1016.6
20260506183501 71 194 5.0 10.0 0.00 0.00 0.00 1017.0
20260506183002 70 250 2.0 11.0 0.00 0.00 0.00 1017.0
20260506182501 71 179 5.0 11.0 0.00 0.00 0.00 1017.3
20260506182002 70 206 6.0 13.0 0.00 0.00 0.00 1017.0
20260506181502 70 185 5.0 13.0 0.00 0.00 0.00 1016.6
20260506181023 69 207 6.0 12.0 0.00 0.00 0.00 1017.3
20260506180523 68 221 4.0 9.0 0.00 0.00 0.00 1017.0
20260506180002 68 234 3.0 10.0 0.00 0.00 0.00 1016.6
20260506175523 67 200 4.0 11.0 0.00 0.00 0.00 1017.3
20260506175002 66 265 6.0 11.0 0.00 0.00 0.00 1017.0
20260506174501 67 246 3.0 7.0 0.00 0.00 0.00 1017.0
20260506174002 67 118 2.0 8.0 0.00 0.00 0.00 1017.3
20260506173502 66 314 1.0 8.0 0.00 0.00 0.00 1017.0
20260506173002 65 193 4.0 8.0 0.00 0.00 0.00 1017.0
20260506172502 65 270 2.0 5.0 0.00 0.00 0.00 1017.6
20260506172002 66 0 1.0 6.0 0.00 0.00 0.00 1017.3
20260506171524 66 79 4.0 9.0 0.00 0.00 0.00 1017.3
20260506171003 66 75 4.0 9.0 0.00 0.00 0.00 1017.0
20260506170502 65 72 2.0 5.0 0.00 0.00 0.00 1016.3
20260506170002 65 354 2.0 7.0 0.00 0.00 0.00 1016.6
20260506165502 65 89 4.0 7.0 0.00 0.00 0.00 1017.0
20260506165003 65 85 4.0 7.0 0.00 0.00 0.00 1017.0
20260506164502 65 100 3.0 7.0 0.00 0.00 0.00 1017.0
20260506164024 65 80 4.0 7.0 0.00 0.00 0.00 1016.6
20260506163502 65 121 2.0 5.0 0.00 0.00 0.00 1017.0
20260506163002 64 129 2.0 7.0 0.00 0.00 0.00 1017.3
20260506162502 64 169 3.0 7.0 0.00 0.00 0.00 1016.6
20260506162002 63 240 2.0 4.0 0.00 0.00 0.00 1017.0
20260506161523 62 92 2.0 6.0 0.00 0.00 0.00 1016.6
20260506161024 62 86 1.0 6.0 0.00 0.00 0.00 1017.0
20260506160501 62 85 2.0 6.0 0.00 0.00 0.00 1017.3
20260506160002 62 103 3.0 5.0 0.00 0.00 0.00 1017.0
20260506155502 62 74 2.0 5.0 0.00 0.00 0.00 1017.3
20260506155003 61 266 1.0 7.0 0.00 0.00 0.00 1016.6
20260506154501 61 68 3.0 7.0 0.00 0.00 0.00 1017.0
20260506154003 61 73 3.0 8.0 0.00 0.00 0.00 1017.0
20260506153523 61 69 2.0 8.0 0.00 0.00 0.00 1017.0
20260506153002 61 22 2.0 5.0 0.00 0.00 0.00 1017.3
20260506152502 61 84 3.0 5.0 0.00 0.00 0.00 1017.0
20260506152002 60 80 4.0 5.0 0.00 0.00 0.00 1017.3
20260506151504 60 91 3.0 5.0 0.00 0.00 0.00 1017.6
20260506151025 60 83 2.0 6.0 0.00 0.00 0.00 1017.0
20260506150502 59 63 2.0 6.0 0.00 0.00 0.00 1017.3
20260506150002 59 69 2.0 5.0 0.00 0.00 0.00 1017.0
20260506145502 58 128 2.0 5.0 0.00 0.00 0.00 1017.0